CAPE
2093 2540 2816 2892 2834 2829 2695 2558 2529 2496 2220 2021 1947 1972 1667 1429 1349 1202 970 968 1026 1079 1168 1330 1337 1326 1428 1654 1944 1963 2024 1906 1773 1722 1619 1782 1741 1675 1655 1643 1598 1508 1308 1571 1428 1583 1748 1834 1734 1714 1799 1666 1585 1807 1446 1570 1833 1792 1545 1420 1240 1431 1400 1265 1151 930 881 882 784 756 611 684 738 651 307 104 57 52 45 67 256 180 103 104 120
2247 2649 2729 2743 2732 2698 2701 2491 2318 2377 2105 1946 1831 1864 1608 1444 1348 1111 970 1031 1141 1149 1189 1250 1353 1470 1605 1844 2057 1998 1993 1934 1888 1866 1876 1764 1767 1806 1775 1714 1398 1473 1405 1380 1529 1668 1625 1692 1795 1777 1680 1748 1835 1924 1886 1795 1795 1834 1903 1728 1586 1460 1362 1048 814 712 671 569 527 484 463 452 428 443 408 115 29 33 88 74 141 75 59 126 134
2332 2574 2654 2641 2614 2654 2528 2482 2422 2147 1983 1972 1919 1779 1615 1396 1286 1056 1082 1186 1182 1196 1184 1241 1449 1518 1612 1802 1908 1962 1962 1892 1976 1910 1857 1795 1773 1745 1743 1664 1704 1599 1553 1573 1749 1751 1790 1696 1688 1677 1808 1946 1972 1864 1731 1622 1631 1677 1707 1584 1472 1133 1022 921 669 472 353 302 279 209 238 165 104 124 226 257 76 54 94 91 90 165 123 167 132
2278 2511 2546 2526 2523 2536 2509 2312 2115 2051 2019 1920 1829 1682 1546 1376 1284 1164 1152 1201 1230 1176 1127 1464 1571 1778 2000 1939 1906 1919 1960 1939 1906 1918 1812 1545 1750 1819 1784 1594 1780 1684 1616 1531 1649 1697 1969 1974 1822 1752 1852 1828 1860 1748 1613 1572 1632 1530 1630 1539 1427 943 824 429 258 244 286 226 386 403 487 377 596 748 619 390 260 161 88 97 266 235 332 385 384
2300 2418 2407 2359 2390 2446 2349 2252 2161 2095 2018 1851 1742 1624 1546 1414 1285 1148 1119 1167 1166 1198 1272 1513 1594 1782 1944 2036 1971 1963 1948 1913 1906 1907 1865 1781 1663 1817 1950 1882 1885 1674 1763 1610 1623 1675 1841 1615 1914 1769 1862 1909 1751 1709 1579 1693 1785 1674 1623 1264 1330 1153 794 453 565 378 285 353 376 167 153 228 317 541 540 637 815 648 594 529 361 454 377 365 327
2210 2302 2307 2284 2250 2310 2302 2226 2142 2043 1930 1789 1679 1597 1529 1413 1219 1104 1112 1162 1231 1269 1316 1410 1618 1771 1930 1952 1999 1966 1904 1896 1869 1945 1942 1856 1770 1870 1841 2042 1741 1734 1607 1734 1639 1832 1830 1808 2036 1832 1802 1822 1797 1715 1630 1565 1554 1505 1483 1401 1438 1312 1318 1352 1328 1462 282 298 234 59 209 335 432 508 643 624 415 214 230 374 252 237 273 289 348
2101 2160 2190 2163 2096 2184 2195 2158 2077 1967 1899 1731 1635 1587 1500 1395 1208 1142 1161 1210 1258 1264 1452 1575 1712 1949 1952 1980 1966 2063 2057 2026 1986 1994 1876 1712 1751 1767 2018 2004 1858 1759 1921 1630 1424 1353 1717 1561 1583 1515 1595 1656 1714 1657 1602 1459 1322 1137 1069 921 998 962 1017 1112 1376 1298 739 277 0 3 44 22 139 271 479 388 387 349 318 395 426 435 408 388 409
1916 2012 1994 1952 1969 2122 2161 2099 1907 1963 1839 1711 1629 1508 1482 1393 1198 1172 1188 1241 1284 1448 1672 1616 1690 1788 1801 1908 1916 2016 2080 2126 2066 2029 2004 1831 1694 1728 1792 1935 1796 1753 1670 1469 1386 1626 1572 1524 1437 1341 1106 1201 1262 1253 1089 1029 956 823 706 604 469 719 554 925 921 848 433 19 0 186 258 145 149 230 356 291 247 508 388 315 314 342 146 104 162
1805 1874 1836 1818 1874 2128 2042 2004 1975 1876 1778 1638 1570 1513 1428 1300 1225 1180 1150 1124 1221 1320 1517 1630 1662 1726 1857 1969 2052 2070 2163 2106 2048 1897 1761 1688 1670 1720 1775 1765 1707 1667 1638 1557 1532 1494 1361 1310 1245 952 824 883 844 802 764 577 592 493 429 575 739 1024 990 1499 1498 1609 516 2 127 240 343 408 444 224 224 109 102 197 250 178 160 210 181 172 144
1737 1760 1724 1741 1875 2063 1932 1920 1890 1790 1718 1612 1533 1436 1318 1240 1141 1117 1062 1018 1034 1211 1314 1475 1576 1732 1803 1889 2051 2172 2192 2111 1916 1762 1654 1626 1685 1559 1524 1511 1564 1534 1543 1471 1463 1482 1539 1179 898 748 595 557 624 493 477 452 374 378 629 722 849 1145 1257 1374 588 482 0 0 122 708 904 870 545 422 330 180 112 116 93 238 408 272 326 370 280
1687 1689 1685 1744 1842 1897 1855 1868 1829 1704 1598 1502 1368 1331 1240 1188 1095 1051 1008 909 884 1074 1161 1383 1552 1701 2036 2111 2204 2268 2241 2084 1894 1743 1702 1708 1680 1662 1600 1488 1470 1483 1501 1548 1545 1502 1413 1054 869 695 643 542 449 445 429 403 443 527 578 840 1020 1235 1419 1004 299 118 173 296 520 795 1052 1063 837 768 515 179 157 223 280 195 172 262 267 303 334
1634 1658 1691 1756 2031 1847 1837 1805 1760 1638 1472 1346 1273 1205 1148 1047 1005 1030 991 899 1108 1014 1398 1511 1786 1894 2110 2320 2306 2304 2079 1856 1785 1769 1682 1634 1581 1616 1550 1536 1505 1474 1482 1463 1415 1418 1154 1033 850 672 650 523 467 408 382 498 570 548 749 888 972 1086 1745 615 127 97 236 319 533 688 735 746 737 838 796 290 88 48 147 363 298 140 171 190 136
1583 1624 1681 1776 1702 1837 1766 1738 1708 1579 1307 1127 1113 1090 1089 988 1020 953 941 983 1117 1386 1479 1572 1781 1860 1987 2065 2160 2087 1840 1804 1748 1775 1635 1529 1570 1593 1592 1523 1390 1353 1361 1422 1400 1050 923 896 877 746 683 651 535 513 549 533 576 607 747 833 1160 1312 1968 401 181 356 463 558 623 618 720 838 869 899 774 617 356 272 266 232 200 158 135 42 224
1508 1563 1608 1550 1621 1859 1725 1647 1595 1488 1313 1144 1114 1051 950 965 942 953 1082 1172 1190 1442 1458 1515 1649 1683 1845 1998 2062 1952 1852 1850 1776 1717 1666 1508 1295 1397 1528 1517 1430 1405 1434 1231 1101 1117 1220 1325 977 806 668 570 609 571 578 609 730 626 914 826 1054 1245 1706 536 498 468 533 597 652 718 750 736 742 771 578 361 269 183 95 202 257 175 95 143 171
1464 1439 1407 1486 1585 1590 1690 1583 1502 1364 1343 1318 1267 1194 1160 1190 1162 1234 1356 1254 1171 1140 1251 1368 1476 1437 1693 1795 1899 1881 1817 1750 1670 1651 1654 1572 1396 1338 1401 1301 1148 1181 1249 1352 1382 1251 1294 1072 769 812 650 623 582 560 641 674 654 832 794 958 872 1242 1994 501 429 499 522 568 593 560 494 451 516 500 456 329 341 340 246 216 171 157 166 196 216
1335 1341 1370 1385 1357 1416 1466 1494 1421 1391 1376 1342 1290 1292 1282 1236 1294 1336 1289 1213 1088 959 1090 1253 1303 1484 1692 1731 1724 1766 1748 1723 1608 1533 1494 1602 1430 1371 1370 1413 1395 1256 1226 1384 1444 1435 1108 986 840 672 641 603 583 616 606 622 701 703 604 870 1083 1411 2541 641 430 400 405 420 378 292 173 460 732 386 279 174 112 136 177 201 225 261 214 143 151
1250 1256 1249 1232 1246 1178 1257 1318 1301 1314 1400 1326 1274 1270 1231 1240 1267 1294 1186 1028 979 940 958 1139 1257 1465 1636 1691 1686 1675 1650 1573 1516 1488 1465 1544 1516 1291 1218 1240 1279 1255 1424 1478 1450 1408 1269 913 927 813 578 610 639 547 597 641 646 529 777 1011 1165 1915 1046 465 419 337 251 255 158 30 40 145 267 212 131 141 89 156 226 260 185 119 106 76 81
1176 1151 1145 1118 1085 1131 1220 1193 1143 1206 1178 1214 1178 1172 1153 1186 1247 1228 1265 1195 978 953 952 1343 1581 1633 1647 1678 1691 1689 1682 1599 1571 1515 1520 1447 1406 1308 1118 1146 1165 1283 1440 1516 1324 1120 1174 1171 837 712 718 672 658 633 666 668 606 720 880 1099 1482 1120 452 448 396 275 144 291 37 178 140 538 444 275 121 45 210 214 126 49 42 65 105 94 8
1061 1070 1025 1058 1124 1204 1189 1182 1191 1189 1123 1129 1166 1129 1149 1241 1336 1258 1209 1336 1311 1268 1228 1525 1647 1607 1630 1726 1646 1666 1648 1609 1495 1529 1466 1426 1392 1304 1269 1121 1152 1233 1344 1531 1330 1308 1214 1049 912 826 696 705 662 607 670 628 752 892 1075 1291 1119 987 599 410 333 289 249 42 32 29 136 721 309 229 134 94 64 80 83 83 113 98 78 56 26
927 825 965 1025 1127 1140 1123 1151 1116 1093 1104 1148 1198 1259 1353 1354 1335 1457 1542 1474 1658 1814 1397 1407 1585 1576 1625 1564 1608 1583 1492 1390 1442 1391 1410 1446 1366 1306 1336 1271 1122 1146 1239 1502 1584 1359 1212 1184 1095 826 793 632 640 659 593 727 933 1109 1159 1300 894 641 423 458 482 377 332 327 97 89 483 344 198 168 139 108 68 47 168 136 156 63 22 29 29
979 863 950 1050 1095 1070 1095 1086 1042 1039 1108 1155 1220 1280 1425 1482 1479 1540 1566 1692 1913 1958 1773 1683 1784 1687 1505 1537 1523 1167 1083 1028 1150 1119 1259 1470 1485 1378 1366 1269 1250 1284 1274 1242 1604 1511 1445 1315 1114 838 818 689 667 593 643 776 853 1002 1152 1157 516 490 446 444 442 485 431 279 182 98 291 340 208 183 138 66 70 43 59 55 37 25 14 11 3
915 938 941 1037 1030 999 1006 1023 988 1038 1102 1169 1189 1296 1380 1274 1307 1296 1405 1420 1527 1842 1708 1672 1664 1466 1685 1555 1171 1111 857 822 818 1159 1098 1279 1276 1304 1427 1336 1257 1398 1351 1343 1505 1576 1520 1414 1232 1010 910 811 614 500 285 286 406 675 1001 590 444 454 464 475 479 372 341 49 146 281 232 492 189 142 72 50 40 54 66 58 30 1 0 1 3
1053 1073 974 862 897 877 860 893 995 1047 1091 1116 1230 1294 1186 1156 1168 1193 1308 1609 1602 1811 1674 1843 1510 1468 1554 1402 1123 1010 935 742 836 1168 938 1172 1267 1360 1392 1432 1376 1382 1381 1320 1493 1602 1582 1476 1345 1181 1016 932 807 401 236 268 330 325 386 382 433 405 389 424 327 359 311 223 32 312 213 190 113 96 78 53 54 31 9 15 12 9 10 8 6
1092 1160 1124 997 963 944 997 984 998 1088 1094 1111 1156 1117 1044 1070 1068 1116 1274 1319 1474 1250 1360 1423 1300 1309 1416 1316 1156 949 925 828 1104 1724 1936 1179 1207 1326 1304 1414 1560 1538 1476 1305 1455 1520 1685 1616 1454 1306 1121 896 601 331 136 39 0 0 348 348 370 386 355 373 386 369 303 281 54 292 229 174 146 127 78 48 22 20 13 10 19 13 6 3 4
1137 1145 1126 1056 1008 1029 1105 1062 1040 1092 1109 1101 1055 972 969 1019 1013 1075 1012 1074 1125 915 1009 1026 1045 1022 1169 1261 1115 1043 949 942 960 1034 1271 1028 1013 1078 1141 1079 1214 1284 1451 1138 1350 1433 1646 1509 1390 1300 1075 762 505 155 31 14 7 0 0 296 309 426 359 364 365 327 283 213 148 260 208 203 191 126 105 59 42 18 17 7 3 3 4 4 6
1100 1155 1186 1102 1052 1075 1132 1113 1126 1144 1149 1106 972 1082 1032 1006 1056 1036 881 924 937 796 732 830 772 697 810 968 952 875 855 873 907 956 1249 1053 862 808 914 869 864 888 1196 1122 976 1240 1414 1442 1292 1173 1028 846 548 246 34 201 265 24 127 295 402 440 433 427 351 334 322 194 164 234 309 342 388 145 120 78 55 29 5 3 4 3 5 3 2
1129 1124 1237 1140 1074 1020 1098 1174 1260 1265 1197 1072 1116 1438 1078 1080 1064 1024 869 860 844 784 771 736 772 649 609 570 638 740 921 932 945 985 1145 1108 963 707 690 638 670 644 614 815 698 939 1169 1279 1102 1014 941 746 538 440 498 560 698 672 591 455 378 366 409 445 401 365 305 215 288 257 372 243 207 196 119 88 72 42 6 2 2 4 3 4 2
1230 1234 1282 1201 1132 1047 991 1125 1307 1366 1286 1238 1266 1246 1155 1129 1068 1170 910 872 836 714 745 732 735 760 675 591 553 590 776 1008 966 938 1014 1094 1046 874 838 797 659 585 522 404 420 371 752 1164 1119 954 946 848 610 671 770 792 755 649 585 533 384 418 405 415 444 429 329 221 170 220 206 304 215 356 120 111 90 46 9 6 4 2 3 6 5
1327 1294 1312 1258 1225 1116 1032 919 1112 1292 1298 1228 1141 1154 1153 1062 1031 910 878 1083 689 681 598 644 683 724 701 618 694 744 836 936 1039 948 959 1020 1045 981 1011 980 930 838 696 516 2 0 52 741 1140 1178 1042 978 879 764 803 763 702 681 642 539 407 365 321 369 377 383 264 252 265 192 235 233 435 422 122 130 91 38 42 5 2 1 2 2 4
1420 1398 1415 1346 1251 1237 1154 1004 1022 1190 1202 1085 1003 1007 1183 1060 973 868 789 1066 707 686 769 628 581 655 681 595 682 815 917 998 1036 1040 975 989 1001 1007 949 897 823 765 678 556 392 168 96 38 283 388 679 905 990 1017 798 748 723 666 524 359 378 363 310 309 297 292 298 276 233 161 311 295 630 276 184 168 96 61 25 10 2 0 1 2 4
1428 1444 1489 1506 1459 1271 1263 1159 1139 1375 1155 1014 1054 1094 1233 1148 1001 1007 995 1047 899 802 834 801 761 749 773 729 720 767 944 1053 1054 1027 1006 1054 1054 1022 976 874 801 720 638 555 462 224 149 101 306 337 457 606 723 799 721 688 629 637 525 355 382 366 323 276 246 253 265 255 225 171 258 359 244 282 330 175 79 62 34 17 12 7 2 1 2
1527 1466 1422 1372 1310 1327 1334 1248 1220 1197 1188 1137 1245 1336 1406 1315 1269 1182 1084 1143 1124 922 877 834 840 826 820 861 804 860 880 976 1002 1004 1009 1039 1070 1082 979 922 917 846 685 546 516 468 405 156 268 261 434 502 572 663 687 684 690 561 466 300 340 336 308 295 277 243 265 240 218 151 157 168 170 167 556 218 60 62 22 24 22 19 6 0 1
1491 1508 1472 1419 1446 1434 1428 1362 1263 1270 1262 1312 1459 1511 1472 1416 1382 1293 1250 1314 1269 1148 1084 1025 992 899 868 899 872 772 856 855 939 917 918 981 1037 1046 1032 1026 1020 1016 913 757 602 513 490 460 452 335 321 500 494 535 577 627 655 511 411 241 292 307 320 259 296 274 250 232 206 187 202 209 201 161 438 172 204 144 23 16 66 53 13 2 2
1391 1566 1486 1534 1568 1536 1434 1389 1355 1412 1492 1462 1618 1558 1472 1450 1454 1416 1272 1281 1247 1154 1115 1010 921 859 857 923 977 836 805 942 983 905 787 804 932 1077 1118 1110 1076 1042 1027 1052 957 743 642 569 468 452 540 375 312 368 380 356 314 301 311 316 360 229 201 219 164 308 302 312 246 238 247 234 247 170 221 208 296 174 134 108 140 88 23 4 2
1392 1406 1326 1413 1642 1574 1434 1470 1509 1580 1626 1467 1484 1641 1618 1592 1561 1457 1330 1316 1206 1105 944 788 798 824 945 947 985 958 891 892 861 835 746 654 748 1002 1101 1100 1160 1272 1269 1170 1017 908 850 728 632 582 494 410 96 54 217 314 358 249 187 336 353 422 220 234 179 258 286 216 277 258 235 240 249 117 28 37 218 91 57 265 306 144 45 8 1
1409 1314 1260 1218 1345 1440 1426 1437 1512 1550 1569 1502 1590 1628 1663 1590 1523 1557 1485 1223 1080 1100 1004 872 862 987 1018 990 972 1000 986 1012 1045 1029 947 830 777 935 1092 1141 1259 1331 1323 1237 1051 864 737 648 631 634 598 520 453 350 96 314 451 418 342 325 384 364 204 67 60 240 352 410 356 306 284 265 223 156 107 19 1 54 113 115 365 347 93 25 68
1491 1439 1383 1354 1340 1339 1333 1446 1506 1488 1419 1528 1605 1568 1644 1647 1630 1594 1434 1035 1134 1125 1091 1030 993 881 786 1038 1195 1207 1223 1277 1311 1232 1148 1038 987 945 1012 1098 1189 1203 1099 921 824 741 688 639 608 586 572 503 478 446 291 106 377 539 439 445 414 308 263 136 333 286 415 450 369 340 290 223 176 371 95 61 0 1 221 391 502 440 253 179 301
1422 1414 1416 1404 1470 1461 1400 1287 1253 1283 1300 1320 1337 1340 1457 1456 1408 1221 1088 1131 1068 1089 1049 967 974 939 813 806 927 1294 1420 1434 1451 1416 1327 1257 1203 1153 1024 970 1043 994 942 931 944 872 790 721 676 657 666 657 608 583 478 318 94 431 601 604 652 383 161 137 153 314 272 237 331 283 228 190 150 129 94 87 85 0 29 424 688 690 321 216 403
1327 1301 1253 1320 1407 1340 1235 1199 1158 1135 1268 1286 1426 1313 1390 1235 1286 1197 1062 1121 1143 1143 1140 1100 1003 834 754 788 766 989 1380 1422 1412 1413 1408 1404 1373 1261 1252 1224 1152 1137 1152 1196 1225 1152 1025 936 830 802 778 755 685 620 583 510 450 339 512 675 688 466 387 364 275 206 203 205 399 364 242 150 112 106 82 115 148 106 52 239 407 579 204 308 392
1352 1273 1147 1181 1218 1166 1159 1082 1102 1175 1164 1206 1214 1283 1216 1192 1259 1118 1020 1070 1117 1161 1179 1058 760 651 702 732 682 667 851 1146 1264 1320 1377 1482 1528 1494 1449 1414 1341 1232 1274 1344 1319 1198 1058 944 884 854 804 722 695 683 614 543 490 445 259 181 552 578 590 511 416 262 201 153 175 298 373 287 67 109 164 167 205 166 106 266 450 431 289 182 409
1416 1374 1300 1270 1238 1310 1348 1278 1210 1268 1301 1267 1080 1149 1182 1268 1286 1307 1369 1346 1340 1304 1134 904 778 816 807 754 771 797 778 832 900 1136 1455 1573 1632 1597 1566 1575 1511 1338 1286 1271 1240 1214 1169 1039 958 924 899 846 797 790 801 707 550 453 417 112 105 440 538 594 567 435 301 241 192 189 285 203 69 145 228 204 240 188 168 269 457 418 344 226 215
1436 1402 1346 1296 1258 1252 1282 1275 1280 1292 1329 1350 1268 1265 1361 1414 1364 1357 1418 1285 1183 1237 1157 1158 1025 894 795 739 822 922 903 1053 1096 1058 1096 1271 1422 1459 1426 1478 1541 1293 1387 1224 1139 1159 1053 1043 1092 1023 946 922 898 852 802 670 636 570 506 460 0 295 68 419 490 493 406 281 234 224 182 166 127 148 254 230 248 235 222 178 347 352 289 228 46
1436 1428 1391 1369 1327 1267 1244 1250 1292 1303 1279 1210 1223 1265 1290 1360 1433 1534 1498 1372 1209 1064 1032 1107 1042 924 866 804 731 712 818 989 1146 1241 1295 1331 1347 1324 1279 1218 1199 1090 1004 1018 998 1018 1053 1064 967 1034 1050 907 763 806 799 711 689 602 463 386 4 5 19 113 352 432 434 385 277 158 205 243 221 188 279 316 284 319 281 270 219 238 265 214 58
1455 1353 1362 1398 1370 1338 1255 1266 1288 1266 1207 1165 1170 1209 1180 1169 1275 1541 1474 1409 1232 1099 1128 956 882 872 833 944 941 960 961 879 808 874 949 1116 1302 1371 1381 1260 1108 1041 931 997 1040 1098 1080 1046 1078 1066 1024 982 847 769 673 674 694 613 487 289 16 97 133 85 98 335 350 356 350 225 123 265 207 205 336 384 388 432 427 448 430 321 204 220 140
1113 871 1067 1287 1260 1304 1215 1093 1066 1101 1123 1117 1154 1199 1204 1249 1283 1346 1259 1217 1191 1158 1150 1139 1109 1022 978 934 859 830 995 1070 937 813 707 907 1094 1147 1231 1362 1299 1142 1105 1085 1131 1212 1139 1110 1158 1041 1029 981 990 850 742 650 614 606 629 484 201 60 41 14 0 40 214 279 306 449 360 318 255 267 342 439 439 514 594 598 573 477 315 150 161
1354 1180 847 1051 1056 1036 1053 988 912 931 990 1080 1096 1106 1194 1248 1263 1182 1138 1097 1066 1083 1048 1060 1027 1053 987 912 835 795 888 898 790 849 980 945 979 984 974 953 966 985 864 743 834 966 916 930 1068 1006 866 885 815 803 749 690 741 744 649 569 435 76 30 0 1 15 27 188 284 400 529 498 416 379 427 495 468 490 652 705 681 586 547 437 172
1287 1180 1181 1217 1091 990 1030 990 934 990 1041 1116 1127 1129 1106 1059 1006 939 902 910 832 827 839 837 876 912 850 829 836 844 752 836 849 823 890 894 871 970 1024 907 777 779 783 844 828 770 804 818 810 815 854 868 747 674 683 641 591 528 460 565 610 448 426 243 118 4 9 25 167 337 491 568 454 286 346 466 545 518 554 692 667 618 652 630 495
943 898 896 1019 990 769 610 530 605 756 760 765 826 938 974 1055 1062 977 884 976 986 910 813 848 830 777 752 800 793 717 746 628 689 690 730 704 725 759 854 906 851 844 868 904 918 886 810 730 787 858 825 828 718 650 767 680 508 502 483 519 631 574 520 401 279 128 0 26 80 199 269 383 465 411 286 374 406 341 418 480 458 496 546 576 568
827 972 1028 796 658 566 477 628 758 819 780 677 621 769 933 925 941 900 890 782 737 694 666 658 708 722 708 677 624 596 636 556 538 598 588 650 649 711 916 988 1011 987 945 904 808 813 844 806 753 724 746 737 640 586 506 529 399 432 450 369 406 488 497 424 354 288 0 43 4 81 123 313 433 471 399 288 166 179 150 180 174 166 193 160 233
907 910 813 657 490 437 577 704 716 676 753 766 670 711 792 857 871 719 754 766 630 580 657 700 677 604 589 604 508 452 475 478 502 584 605 653 654 786 881 948 1000 1028 907 837 815 813 815 826 782 686 586 564 583 540 510 492 378 338 369 418 349 458 329 339 336 271 188 85 36 9 122 181 121 133 350 309 192 234 243 219 181 141 155 148 324
747 682 561 466 380 498 580 485 445 516 617 730 733 716 749 794 808 772 731 700 563 541 554 544 466 413 471 527 534 490 400 436 469 532 555 512 529 584 685 896 978 926 822 779 798 818 806 712 678 620 510 459 440 391 442 507 502 512 445 437 430 425 429 304 240 220 193 155 41 9 65 238 246 278 272 399 401 321 284 194 195 159 146 113 308
Wind_Speed
31 36 34 33 33 35 35 33 29 26 26 27 28 28 27 28 29 30 32 32 32 32 32 32 32 31 30 28 26 25 24 25 25 26 28 27 27 27 26 26 26 24 22 22 21 19 19 17 16 15 15 15 14 12 11 11 11 11 11 12 14 14 12 10 10 10 11 10 9 9 8 9 10 11 10 10 nan nan nan nan 5 2 2 8 11
38 36 33 32 34 36 36 33 29 27 26 27 27 28 28 29 29 31 32 32 32 33 33 32 31 30 30 29 28 27 26 25 26 27 27 28 27 27 26 26 25 24 23 22 21 18 16 15 16 14 13 13 11 10 10 10 10 10 10 11 12 13 12 11 10 10 10 9 8 9 9 9 9 11 11 11 nan nan nan nan 10 nan nan 11 12
40 38 31 32 36 35 35 32 29 27 26 26 27 28 29 30 30 32 32 33 33 32 33 32 31 30 30 30 29 28 27 27 27 27 28 28 28 27 26 25 24 22 22 22 21 18 16 15 14 13 12 10 9 9 9 9 9 9 9 9 11 12 11 11 11 9 9 9 8 8 10 10 9 10 11 12 nan nan nan nan nan 10 7 13 12
40 33 30 32 36 33 32 30 29 27 25 25 27 29 30 30 30 31 31 32 32 32 33 32 31 31 30 30 29 29 28 27 27 27 27 28 27 26 25 23 21 20 20 20 19 18 16 15 13 12 10 9 8 8 8 8 7 7 7 7 7 10 10 12 11 10 10 10 7 4 3 1 7 12 13 13 13 13 nan nan 13 14 14 13 15
35 29 27 26 27 29 29 29 28 26 26 26 28 30 31 31 31 31 31 32 32 33 33 32 32 32 32 31 30 29 28 28 27 27 26 26 26 26 24 22 19 19 19 19 18 18 17 14 13 12 9 7 7 7 7 6 6 6 5 5 6 5 9 12 11 10 9 7 4 2 2 2 3 10 13 14 14 14 13 14 15 13 14 14 14
28 25 24 24 23 25 28 27 27 27 26 27 29 30 31 31 31 31 31 31 32 34 34 34 33 32 32 32 31 29 30 29 28 27 26 26 24 24 24 22 20 18 16 17 16 15 15 14 13 11 9 6 6 6 6 6 5 5 4 3 3 3 0 4 3 7 7 6 4 nan 1 1 3 6 13 14 14 14 15 15 15 14 14 15 14
27 21 22 23 21 22 26 26 27 26 25 27 29 30 31 31 32 32 32 32 33 34 34 33 32 33 31 31 31 31 31 30 29 28 27 25 23 21 21 20 18 16 15 16 16 15 15 14 13 10 7 5 4 5 6 5 4 3 3 3 3 3 3 4 6 2 7 3 nan nan nan nan 2 5 13 14 14 15 15 15 15 13 14 14 14
22 20 20 21 20 23 25 25 25 26 25 27 28 30 31 31 32 32 33 33 34 34 33 32 32 32 31 30 31 32 32 31 30 29 27 24 22 19 19 18 15 15 15 14 14 14 13 13 12 9 6 4 5 7 7 5 4 3 3 4 4 4 5 6 6 3 8 nan nan 2 2 3 3 5 13 13 14 15 15 15 14 14 14 14 14
21 19 20 20 20 26 24 23 24 25 26 27 28 30 31 31 31 32 33 34 35 35 34 33 31 31 30 30 31 32 32 32 30 30 29 26 22 20 18 18 15 14 14 13 13 12 12 11 11 9 6 5 6 8 9 7 5 3 2 3 3 4 5 9 5 7 6 nan 4 4 4 5 5 6 12 12 13 14 15 12 13 15 15 15 15
21 19 19 18 18 23 23 23 23 25 26 27 27 29 31 31 32 33 34 34 34 35 34 33 31 30 29 29 30 32 33 31 31 30 29 26 22 20 18 18 17 15 14 14 13 13 12 10 9 8 6 5 4 6 7 7 6 3 3 3 4 5 7 7 13 10 nan nan 5 5 7 9 5 7 12 13 14 15 nan 12 9 12 13 16 17
21 20 18 18 19 23 23 22 22 24 25 27 28 29 31 31 32 34 34 34 35 34 34 32 30 28 27 29 31 32 33 33 31 30 30 27 23 21 20 19 17 15 15 14 13 12 11 10 8 6 6 5 3 4 5 6 5 5 5 5 5 6 6 6 10 6 4 4 6 7 11 13 5 5 15 13 12 15 14 14 14 14 16 17 17
22 19 17 17 23 22 22 22 22 24 26 27 28 29 30 31 32 34 34 34 33 34 33 32 30 29 28 30 32 33 33 34 32 31 29 28 25 22 21 20 19 17 16 16 14 12 11 9 8 5 5 4 3 4 5 6 7 7 7 7 7 7 6 9 7 nan 5 5 7 7 7 6 5 10 17 15 nan nan 15 15 15 15 15 16 16
21 18 17 16 17 20 20 21 22 23 26 27 28 29 30 31 32 33 34 33 31 32 33 31 28 28 27 29 32 32 33 32 31 30 29 28 27 24 21 21 21 20 19 18 16 14 12 9 7 5 4 3 3 4 6 7 7 7 8 9 9 8 4 14 8 8 6 5 7 9 8 7 6 14 15 15 14 12 14 14 14 15 15 nan 16
21 18 17 16 15 21 20 20 21 23 25 26 28 28 29 30 32 32 31 30 30 30 32 30 29 30 29 29 29 31 32 31 30 29 28 28 27 25 23 22 22 22 20 19 17 15 13 10 6 4 4 2 3 4 5 6 7 8 9 9 9 8 5 11 11 9 7 6 8 9 7 7 8 14 15 13 14 13 nan 15 15 16 nan 16 17
21 19 17 15 15 15 22 20 21 23 23 24 25 26 27 28 28 28 29 29 29 31 30 29 30 30 30 30 30 30 30 30 29 29 28 28 28 26 24 24 24 23 21 20 18 16 13 9 6 4 3 2 2 4 5 6 6 7 8 9 8 7 5 6 8 8 8 7 8 8 7 7 13 13 14 15 15 15 14 15 16 16 17 18 18
21 20 17 16 15 15 16 22 23 23 24 24 25 27 27 27 26 27 28 28 28 30 29 28 29 29 28 28 29 28 29 29 29 28 28 28 28 26 25 25 25 23 20 19 19 18 14 10 5 3 2 1 2 3 4 5 6 6 6 7 7 6 1 8 7 6 7 7 7 7 8 7 14 15 15 15 15 15 15 15 16 16 17 17 18
20 20 19 17 17 16 17 17 21 26 24 24 26 28 27 26 25 25 26 27 28 28 27 26 27 28 29 29 29 28 28 28 28 29 29 29 28 27 26 25 25 23 21 20 20 19 17 11 6 3 2 3 3 3 4 4 5 4 5 6 5 3 14 10 7 6 7 8 9 nan nan 8 13 14 15 15 nan 15 15 15 15 15 16 nan nan
21 20 19 18 17 17 17 17 19 19 19 23 26 27 25 24 24 24 25 25 26 26 25 25 26 28 29 30 30 30 29 29 29 30 31 30 29 28 27 25 24 23 21 22 20 18 18 14 7 4 1 2 4 5 5 4 3 3 4 6 8 14 17 13 8 7 7 8 nan 9 9 11 16 15 14 nan 17 16 14 nan nan nan 16 nan nan
20 19 18 18 18 18 18 19 19 18 18 17 18 22 25 24 23 24 24 24 23 24 25 25 26 27 28 28 29 29 28 26 26 28 30 30 31 29 27 26 26 25 23 21 19 18 18 15 9 4 1 2 4 5 6 5 3 4 5 8 13 14 16 9 8 8 8 nan nan nan 9 12 15 16 15 nan nan nan nan nan 14 nan nan nan nan
17 17 16 16 16 17 17 17 16 16 15 16 17 17 23 25 24 24 23 23 23 24 24 24 25 25 26 27 27 24 24 21 24 23 27 28 31 26 26 26 27 28 24 21 19 16 17 15 11 6 1 1 2 3 4 4 4 4 7 12 14 13 9 8 7 8 9 10 nan nan 12 16 15 16 16 14 nan nan 16 15 15 nan nan nan nan
15 15 14 15 15 15 14 13 13 15 15 15 15 16 19 24 22 23 23 22 23 24 23 24 24 25 24 25 23 20 19 18 18 17 20 18 22 25 25 26 27 28 26 21 18 15 15 15 12 7 2 1 2 3 3 3 4 3 8 15 15 13 11 10 10 10 9 10 9 nan 16 14 14 15 16 nan nan nan nan nan nan nan nan nan nan
17 15 13 14 13 11 12 11 12 14 15 15 15 15 17 19 16 17 16 18 20 22 20 19 22 20 24 22 22 20 18 16 14 14 14 16 17 21 23 25 26 26 25 21 17 15 14 13 12 8 4 1 2 2 2 3 4 3 9 16 13 14 14 11 11 11 11 nan 11 13 17 13 16 16 nan nan nan nan nan nan nan nan nan nan nan
19 16 14 13 11 11 11 13 13 14 16 15 15 16 16 15 16 15 15 17 18 18 17 18 19 20 21 23 22 21 18 16 14 14 15 14 15 19 21 23 23 23 22 20 17 14 13 11 10 8 5 2 3 3 3 2 2 5 12 10 15 16 14 12 11 12 12 12 nan 16 16 16 16 nan nan nan nan nan nan nan nan nan nan nan nan
18 16 15 13 13 13 13 13 14 15 16 16 16 17 15 16 16 15 15 16 18 18 18 19 19 20 22 22 22 19 16 15 12 11 11 13 13 17 18 19 18 18 19 17 16 14 13 10 8 6 6 6 6 3 2 nan nan nan 8 10 15 19 15 12 13 13 11 12 nan 18 17 17 16 16 nan nan nan nan nan nan nan nan nan nan nan
17 16 15 14 13 13 13 13 14 15 16 16 17 16 15 16 15 15 17 18 20 20 19 20 20 20 22 22 19 17 15 15 14 12 11 13 12 12 12 13 13 13 15 14 14 13 14 11 8 6 7 7 6 4 nan nan nan nan nan 11 13 18 17 15 15 14 12 12 12 19 18 16 15 15 17 nan nan nan nan nan nan nan nan nan nan
17 17 16 16 14 13 12 13 14 14 14 14 16 16 16 15 16 18 20 20 22 20 18 18 17 18 20 20 17 14 14 15 14 13 12 14 12 11 11 11 13 13 12 14 13 13 14 12 9 6 5 7 7 5 nan 5 3 nan 5 11 10 16 17 17 17 14 13 13 13 19 16 14 14 16 17 nan nan nan nan nan nan nan nan nan nan
17 17 18 16 14 12 12 13 14 13 12 12 14 14 14 15 18 20 22 20 19 19 16 16 16 16 17 17 16 13 13 14 13 12 13 13 12 10 9 9 10 11 11 13 12 12 12 12 10 7 7 7 6 5 5 6 6 5 3 9 9 14 16 19 18 16 14 13 13 19 15 15 16 17 18 nan nan nan nan nan nan nan nan nan nan
19 18 17 15 13 13 13 13 14 12 10 11 12 13 14 17 19 20 19 19 18 17 15 14 15 15 14 15 14 13 12 11 11 12 12 12 11 8 7 8 9 8 9 10 10 9 9 9 9 8 8 9 8 7 6 6 5 5 3 6 10 13 16 19 20 18 16 14 14 17 18 16 17 18 20 20 nan nan nan nan nan nan nan nan nan
21 19 17 15 14 14 13 14 13 12 10 9 11 13 16 18 17 18 17 17 15 15 15 13 12 11 12 13 14 12 10 9 10 11 11 11 10 8 7 8 7 8 8 9 nan nan nan 7 6 7 9 9 9 7 9 8 8 7 6 5 10 13 15 18 20 20 17 15 15 15 18 17 16 20 21 20 nan nan nan nan nan nan nan nan nan
21 20 18 15 13 13 14 14 13 12 10 9 10 14 17 19 18 18 17 16 14 14 14 13 12 12 12 11 10 10 10 10 9 9 11 12 11 9 9 8 7 7 9 11 11 10 nan nan 6 7 8 9 8 10 11 10 10 11 9 8 10 12 15 18 19 20 19 17 16 14 17 17 19 22 21 22 nan nan nan nan nan nan nan nan nan
22 20 18 15 14 13 13 13 13 12 9 9 11 13 15 18 19 19 18 15 14 14 13 14 14 14 13 10 8 6 7 8 9 9 10 12 12 11 10 9 8 7 7 9 11 9 8 7 6 5 6 9 11 12 10 9 11 12 13 12 11 14 16 17 18 20 20 19 18 15 14 18 21 22 21 21 nan nan nan nan nan nan nan nan nan
21 19 17 15 15 14 14 12 12 11 10 11 12 13 15 17 18 19 17 15 15 14 13 13 14 13 11 8 6 5 6 8 9 8 9 9 10 10 9 8 8 6 6 7 7 7 7 7 6 6 6 7 7 9 10 9 8 10 13 14 15 14 18 17 17 19 20 19 19 17 15 16 19 20 20 22 nan nan nan nan nan nan nan nan nan
18 19 18 17 16 16 15 13 12 12 12 14 14 14 16 17 18 18 17 15 16 15 15 13 12 11 10 9 6 6 8 10 9 8 8 8 8 8 7 7 7 6 6 7 7 7 6 5 3 4 4 6 7 6 8 10 9 8 11 11 15 14 17 19 17 18 20 21 20 18 16 16 16 18 22 22 20 19 nan nan nan nan nan nan nan
19 17 18 17 16 16 15 15 14 15 14 15 15 15 17 17 17 16 15 15 14 14 15 13 12 11 11 9 9 9 9 9 9 7 7 7 6 7 7 6 6 7 8 8 8 9 9 8 6 5 4 4 4 5 7 8 9 8 9 10 11 14 16 20 18 17 19 22 21 20 18 17 16 17 18 21 18 18 17 17 15 nan nan nan nan
19 17 17 17 17 16 17 16 15 15 15 15 15 15 16 16 16 15 15 13 11 10 11 12 12 9 8 8 9 9 9 10 10 9 8 7 6 5 5 6 8 9 9 9 10 11 12 10 10 10 8 6 nan nan 7 8 9 8 8 12 13 16 18 17 17 18 19 20 22 21 21 18 16 16 nan nan 17 nan nan 15 13 17 nan nan nan
17 16 17 17 17 16 18 18 17 16 15 16 15 14 15 16 13 14 14 13 11 10 11 12 11 9 9 8 8 8 8 9 8 8 8 8 8 7 7 8 10 10 10 10 12 13 14 13 12 13 12 10 9 6 nan 8 9 8 9 10 14 19 23 nan nan 17 19 21 21 21 22 19 16 15 16 nan nan nan 17 14 12 17 nan nan nan
17 17 18 19 19 18 20 20 17 16 15 15 14 14 16 15 13 12 13 13 14 12 11 11 9 9 9 8 6 6 6 6 6 7 7 7 8 9 9 10 11 11 10 10 11 14 16 15 14 13 15 13 13 10 9 9 9 8 9 10 14 18 21 24 19 14 18 22 20 21 22 19 15 14 nan nan nan nan 15 16 13 16 17 16 14
20 20 19 18 19 19 20 20 18 17 16 16 15 15 15 15 14 12 12 11 13 14 14 13 10 9 9 8 7 7 7 6 6 7 7 7 8 9 9 11 12 13 13 12 11 13 14 15 13 13 14 15 15 15 14 13 nan 10 11 11 15 16 18 25 25 21 18 17 19 20 20 20 17 14 nan nan nan nan nan 13 13 16 18 15 11
24 23 22 19 19 20 20 19 18 17 15 16 17 18 19 16 13 13 13 13 12 13 14 13 10 10 9 8 9 9 8 7 8 7 8 8 8 9 10 12 14 15 16 15 14 13 13 15 16 15 16 17 17 17 18 18 16 14 12 14 16 18 19 21 25 24 21 19 16 16 19 20 19 18 nan 17 16 16 nan 13 13 14 16 17 11
25 24 23 20 20 20 19 18 17 16 17 17 17 15 16 16 15 13 12 13 12 11 12 16 15 12 11 11 11 10 9 8 9 10 9 9 10 11 12 14 17 18 18 16 15 17 17 17 18 18 16 17 19 18 19 20 18 18 16 16 17 17 18 18 18 23 22 21 20 19 18 21 nan 21 21 19 18 17 16 14 14 14 15 14 13
26 26 24 22 21 20 21 20 17 17 17 18 17 17 16 15 16 17 15 15 12 10 11 13 15 16 14 14 14 12 11 10 12 12 11 11 12 13 14 15 19 21 19 16 17 18 18 19 19 19 18 16 16 19 18 20 20 18 19 17 15 17 16 17 18 20 19 18 20 22 20 20 nan 22 22 22 20 19 17 15 14 15 14 14 13
24 26 25 23 23 24 25 22 20 20 19 18 17 16 16 16 17 17 18 16 14 12 10 12 12 14 16 16 14 13 13 13 13 13 12 13 13 15 17 18 21 21 16 15 15 14 14 16 18 17 19 17 17 21 20 23 19 20 20 20 nan 17 nan 17 18 21 19 18 18 21 21 19 20 22 23 22 20 19 17 16 15 14 15 15 nan
26 28 25 26 26 25 24 22 22 22 21 20 18 16 14 14 15 17 19 17 17 16 13 12 13 15 17 17 16 16 15 14 14 15 15 15 15 16 17 22 23 19 14 14 15 15 16 15 15 15 16 20 20 22 23 24 18 22 25 25 nan nan nan 19 20 21 22 20 20 21 21 19 18 22 22 22 20 18 17 16 16 15 15 15 nan
29 28 27 26 25 25 24 24 23 23 22 21 20 18 16 14 14 15 18 19 16 13 13 13 13 13 12 14 16 18 17 15 15 16 17 16 17 18 21 24 22 20 16 15 17 17 17 15 15 16 18 17 21 21 26 26 26 29 21 24 nan nan 16 nan nan 22 24 22 22 20 22 19 21 23 24 21 20 20 18 18 16 16 15 16 17
29 28 27 26 25 26 25 25 24 23 22 22 21 19 19 19 19 20 20 19 19 18 17 15 15 14 13 13 13 17 17 15 16 16 16 17 18 19 22 23 21 22 22 18 18 20 20 19 18 18 19 19 17 20 25 29 26 28 26 28 28 nan nan nan nan nan 27 24 22 22 20 19 22 24 23 20 21 20 19 18 18 17 17 17 18
29 28 27 28 27 26 26 26 25 24 24 23 22 22 22 22 23 23 22 21 21 20 20 18 16 15 15 15 14 16 17 15 16 16 15 16 18 20 25 24 22 23 23 21 20 20 20 22 21 19 17 20 19 19 21 28 26 26 25 25 28 nan nan nan nan nan nan 24 24 22 20 20 22 24 23 21 20 19 18 19 20 18 18 18 18
28 28 28 29 28 26 26 26 25 25 23 23 23 23 24 23 24 24 24 25 24 24 22 22 20 18 17 16 14 14 17 17 16 16 16 18 19 21 22 22 22 23 23 23 22 21 21 22 21 23 22 21 23 19 19 23 24 22 24 24 23 27 32 31 26 nan nan nan 25 22 18 18 21 24 23 20 19 18 19 20 21 20 20 19 19
29 31 29 29 26 25 26 27 26 25 24 24 25 24 24 23 25 24 25 25 25 24 23 24 24 23 23 21 20 18 14 17 17 17 18 19 20 20 20 21 20 20 22 22 22 21 21 22 24 23 22 24 25 23 20 24 23 22 28 27 25 24 27 26 27 27 nan nan nan 21 19 20 20 20 21 21 19 18 20 21 20 20 20 20 19
32 31 28 27 29 28 27 27 26 25 24 25 26 25 25 25 26 26 26 25 24 24 24 25 26 25 25 24 24 24 25 19 18 19 19 20 21 20 21 24 23 22 25 24 22 21 21 21 22 23 24 23 25 25 22 21 24 24 29 29 29 25 25 26 26 28 nan nan nan nan 22 22 20 20 22 22 20 19 20 20 20 20 21 21 20
32 31 30 30 29 27 27 28 27 25 24 26 26 27 28 28 29 28 28 25 24 24 25 26 27 26 25 25 25 26 26 26 26 26 24 25 25 26 26 26 26 25 26 25 22 22 22 22 23 23 23 22 24 27 25 22 24 25 27 28 33 27 26 26 26 26 26 nan nan nan 24 24 20 22 25 23 20 20 20 20 20 20 22 22 21
31 31 31 30 29 29 29 29 25 25 26 27 29 29 29 29 29 30 29 28 25 25 25 27 26 26 25 25 26 27 27 27 26 26 26 25 25 25 25 26 26 26 25 23 21 21 22 23 23 23 22 23 24 25 25 24 24 26 28 29 30 31 30 28 27 28 27 26 nan nan nan 23 22 23 26 24 22 21 20 22 21 21 22 23 23
Wind_Direction
303 302 304 305 307 307 307 307 306 307 310 311 309 308 309 310 310 309 309 310 310 309 309 309 309 308 309 310 310 311 311 312 315 318 320 322 322 321 320 318 317 317 312 308 299 300 299 299 298 298 297 294 291 291 294 295 289 285 287 290 294 297 291 277 261 249 241 241 246 252 254 257 266 268 269 262 nan nan nan nan 226 204 223 254 253
305 300 297 300 304 306 306 305 306 308 310 309 308 307 308 310 309 309 311 311 311 310 310 309 309 310 310 310 310 311 312 314 317 319 322 323 323 322 321 320 318 316 315 307 301 295 296 298 298 297 295 292 294 296 293 292 290 290 290 295 294 284 279 269 258 251 250 251 249 253 257 261 264 273 276 275 nan nan nan nan 251 nan nan 263 257
299 298 293 296 302 303 303 304 304 307 309 308 306 307 308 310 310 311 312 311 310 310 311 310 310 311 309 308 309 310 311 314 318 319 321 322 324 325 324 322 318 315 308 304 303 302 301 296 294 295 293 291 296 295 292 293 293 293 295 298 296 291 283 275 265 255 256 255 257 262 271 278 284 284 279 274 nan nan nan nan nan 253 250 253 252
298 293 289 294 300 301 301 302 305 307 308 306 306 307 308 310 311 312 312 311 311 312 311 310 312 311 308 308 309 309 311 314 317 320 322 323 323 322 322 318 316 310 305 301 300 299 292 292 295 293 294 296 294 289 286 289 284 284 288 296 301 299 290 279 273 267 266 266 248 194 123 279 287 287 288 289 288 286 nan nan 265 270 268 265 260
293 289 286 289 295 299 300 302 304 305 306 306 307 308 309 311 312 312 312 312 311 311 312 313 313 310 308 308 309 310 312 314 317 319 323 323 322 322 321 316 312 311 308 306 301 299 298 292 290 291 293 294 290 285 282 274 271 271 272 275 281 287 299 290 275 269 266 259 240 161 82 27 319 280 287 290 290 285 279 273 272 265 263 261 261
288 283 284 288 293 296 299 300 302 304 306 306 308 310 310 312 313 312 312 312 312 313 314 313 311 309 308 308 309 310 311 313 314 316 319 320 323 322 319 315 312 309 306 298 301 299 299 297 292 290 292 292 289 289 283 278 268 263 260 260 271 293 139 113 128 236 262 258 238 nan 122 293 334 311 287 284 279 276 271 269 268 265 264 261 263
285 281 285 290 291 295 297 299 301 303 305 306 309 311 312 312 312 312 312 313 314 314 314 314 312 310 309 310 311 311 311 312 314 315 317 319 320 321 317 315 312 311 309 306 303 304 300 298 293 291 284 276 254 248 251 253 253 241 220 197 186 175 137 127 120 184 278 279 nan nan nan nan 332 307 287 285 280 278 275 270 269 271 271 273 270
276 280 283 287 288 294 296 297 299 302 305 307 310 312 311 311 312 313 315 316 316 315 315 314 312 311 310 311 311 312 312 313 315 316 318 319 319 319 315 314 313 313 313 307 300 296 295 293 292 294 285 251 215 203 216 223 230 207 191 177 172 162 129 108 99 77 290 nan nan 299 284 278 271 287 279 275 278 282 279 276 273 271 271 269 266
273 277 281 284 288 295 294 295 299 302 305 309 311 311 311 311 314 316 318 318 317 316 315 314 313 313 313 312 312 312 313 313 315 318 318 316 316 317 317 316 319 317 314 307 299 295 294 295 297 296 288 255 210 190 188 188 198 197 182 179 156 145 122 120 50 358 314 nan 320 312 293 271 260 272 277 273 276 271 262 260 269 273 276 275 270
275 275 277 279 284 294 295 297 299 303 306 309 310 310 311 314 317 319 320 319 318 317 315 313 314 315 316 315 313 313 313 313 316 316 315 315 315 317 320 324 327 329 326 319 312 303 299 298 299 303 297 271 231 199 181 180 178 178 170 159 156 158 161 196 277 291 nan nan 327 299 288 279 277 290 287 288 287 285 nan 285 283 281 277 277 275
276 275 275 282 291 296 296 298 300 304 306 307 309 311 313 316 318 320 321 320 319 318 315 313 314 317 319 318 315 314 315 315 316 318 317 317 317 318 319 319 323 327 325 320 312 304 299 301 302 311 299 285 256 221 197 188 176 167 156 161 167 167 174 240 274 287 302 325 304 293 285 279 275 290 292 287 286 285 289 288 283 277 276 277 275
277 278 283 288 298 296 297 298 302 305 306 306 308 310 314 317 319 320 321 320 320 319 314 314 315 315 317 319 317 318 318 316 317 318 317 317 318 318 318 318 320 321 320 316 314 308 303 303 306 314 303 296 269 237 221 204 187 171 169 165 166 166 175 290 294 nan 298 300 291 283 278 281 288 290 284 286 nan nan 287 283 277 274 276 273 274
277 278 280 279 283 293 295 299 302 303 305 307 309 311 315 317 319 322 322 320 318 316 315 313 312 313 315 318 319 318 317 316 317 317 317 317 317 316 315 317 317 317 317 318 317 316 312 307 311 308 302 297 263 236 219 208 192 184 176 175 171 164 188 313 307 294 290 295 288 281 282 281 285 288 288 290 289 287 288 283 279 282 275 nan 267
269 271 270 273 278 293 291 292 295 298 302 305 308 312 316 318 320 321 322 320 318 318 317 314 313 315 315 317 317 316 315 315 316 317 316 316 315 314 313 314 315 314 314 316 318 317 315 308 306 291 286 280 260 235 219 206 195 189 183 177 166 168 243 311 307 301 300 303 293 290 291 292 288 287 288 290 289 284 nan 283 282 277 nan 275 270
271 270 272 273 274 278 287 283 286 290 296 299 304 311 315 317 318 320 320 319 319 319 318 317 317 317 318 319 316 315 315 316 316 316 315 314 314 313 312 312 316 315 314 315 317 314 310 305 302 291 280 265 249 231 219 204 193 189 179 171 167 171 184 325 312 309 309 305 300 297 298 301 296 295 297 299 295 292 286 281 280 282 281 279 276
269 271 266 264 266 270 273 284 284 288 294 298 304 309 313 315 318 320 321 321 320 321 319 318 319 318 319 319 318 317 317 314 314 315 314 312 312 312 311 310 314 316 314 316 314 311 310 308 303 294 270 234 206 205 201 197 198 192 185 177 167 153 176 318 317 314 313 310 308 303 302 306 306 298 299 298 293 290 287 283 284 286 282 281 279
269 269 267 262 263 265 268 272 285 292 293 298 304 309 312 315 316 319 320 319 320 322 322 319 319 320 320 320 319 319 318 317 316 315 313 311 311 314 311 309 312 315 316 316 315 312 310 311 309 287 266 220 191 174 168 185 199 201 207 199 163 173 300 299 308 315 320 323 317 nan nan 295 298 304 302 301 nan 292 289 288 288 285 284 nan nan
264 267 264 258 256 257 266 274 279 285 292 298 305 309 312 313 316 319 321 321 322 324 324 322 320 321 322 323 325 325 325 323 320 318 314 311 313 314 312 308 308 310 314 317 315 313 312 309 313 306 261 205 203 188 182 187 192 207 231 214 206 282 294 301 310 314 317 317 nan 318 311 313 300 296 300 nan 301 298 293 nan nan nan 286 nan nan
260 265 262 260 264 268 272 278 282 286 290 296 305 313 314 315 316 320 324 325 324 326 326 326 326 325 324 325 327 327 326 324 322 319 316 313 314 315 312 309 309 310 311 315 317 312 310 311 311 302 287 192 196 198 199 197 195 230 244 238 232 268 292 300 309 309 311 nan nan nan 319 309 301 305 308 nan nan nan nan nan 295 nan nan nan nan
259 265 263 263 271 275 280 284 287 291 295 303 308 313 317 316 317 319 320 322 322 325 328 327 326 325 326 325 325 322 322 321 323 320 321 315 313 315 312 310 311 312 310 314 315 311 309 311 312 308 306 163 168 187 189 189 197 227 255 258 254 248 259 276 292 301 309 312 nan nan 307 301 308 306 301 300 nan nan 300 299 300 nan nan nan nan
251 258 264 268 272 278 286 291 295 297 302 308 310 311 315 315 314 318 321 320 326 327 326 327 325 327 324 322 314 311 314 318 319 318 322 311 308 316 315 313 314 312 309 310 313 310 307 310 314 309 316 44 130 141 163 170 178 187 258 264 268 269 269 275 286 297 300 304 305 nan 306 307 307 301 304 nan nan nan nan nan nan nan nan nan nan
263 266 267 273 278 281 290 294 298 303 309 311 311 308 307 308 309 318 320 320 322 324 321 318 322 318 322 311 306 308 309 314 324 332 325 323 317 325 322 317 316 314 310 307 309 308 308 311 313 311 314 307 122 192 204 188 153 157 252 268 268 282 284 286 293 300 298 nan 299 309 314 315 308 307 nan nan nan nan nan nan nan nan nan nan nan
267 270 270 274 279 285 290 297 303 310 312 312 308 306 301 305 313 320 319 314 315 312 313 314 310 315 312 308 305 305 307 312 324 333 330 331 327 330 327 322 320 319 313 308 307 310 307 309 313 311 302 284 233 200 197 225 212 171 252 266 273 280 283 291 296 296 295 294 nan 309 311 302 302 nan nan nan nan nan nan nan nan nan nan nan nan
267 272 277 275 280 286 293 299 309 316 315 314 307 303 305 311 323 323 317 313 309 308 308 308 307 307 304 302 306 308 308 311 310 309 328 331 333 333 330 328 326 323 319 310 309 308 308 302 303 304 283 266 253 239 224 nan nan nan 268 276 285 288 293 303 301 298 297 293 nan 309 305 307 311 315 nan nan nan nan nan nan nan nan nan nan nan
274 272 270 277 283 288 292 297 308 315 314 314 308 307 312 319 326 322 316 311 308 308 308 305 307 306 302 303 310 315 316 319 318 320 331 328 328 323 323 319 319 320 318 306 302 304 298 284 277 268 264 264 255 255 nan nan nan nan nan 278 290 294 303 308 303 300 300 293 290 306 308 310 313 311 313 nan nan nan nan nan nan nan nan nan nan
279 275 277 282 283 287 291 298 305 312 313 314 309 313 315 326 327 321 314 313 310 310 311 309 310 310 306 307 310 313 319 320 321 323 326 328 329 328 329 326 323 325 318 314 308 309 302 291 283 287 271 263 267 267 nan 302 302 nan 275 283 296 299 304 306 305 304 302 295 295 309 304 305 298 307 309 nan nan nan nan nan nan nan nan nan nan
279 279 282 283 285 288 294 303 307 308 311 310 309 311 322 330 323 319 318 316 314 317 322 321 321 321 314 313 315 318 320 326 327 332 336 334 337 337 342 336 332 328 321 320 318 310 306 297 283 295 300 290 285 292 298 297 301 301 275 282 292 304 305 300 301 304 303 298 296 308 294 292 294 300 305 nan nan nan nan nan nan nan nan nan nan
280 284 284 286 293 302 307 310 312 311 313 313 315 323 327 326 324 321 316 324 326 335 333 335 333 330 323 325 324 329 329 327 336 341 346 336 342 347 346 344 336 334 324 324 328 316 307 292 276 278 308 319 323 323 306 285 281 280 267 273 288 299 303 298 298 301 300 298 292 302 301 296 298 295 304 308 nan nan nan nan nan nan nan nan nan
287 286 286 293 305 312 310 311 312 311 315 320 326 328 324 323 320 320 325 333 336 341 337 343 345 336 332 336 336 332 336 344 353 0 351 351 353 358 5 17 353 336 322 319 nan nan nan 312 292 273 282 302 312 314 307 307 296 287 288 259 279 291 294 296 297 297 296 296 292 298 311 304 294 292 300 303 nan nan nan nan nan nan nan nan nan
285 284 291 300 307 310 309 311 314 316 322 323 332 324 325 327 329 328 333 339 343 343 341 349 350 348 348 348 343 335 349 358 0 0 1 12 9 14 14 17 19 353 327 323 324 322 nan nan 312 291 271 281 292 296 307 307 280 267 277 272 283 294 294 295 296 296 295 294 293 292 314 306 293 290 297 301 nan nan nan nan nan nan nan nan nan
281 285 290 298 306 307 305 308 311 315 316 325 322 321 323 331 334 332 335 341 340 343 348 346 349 355 357 352 351 355 359 354 347 354 3 12 18 19 27 20 20 13 345 335 328 330 326 324 330 324 283 265 273 274 279 281 265 256 275 279 284 285 286 288 292 294 296 296 292 287 294 300 291 291 293 297 nan nan nan nan nan nan nan nan nan
279 282 285 294 302 308 308 307 310 310 312 315 314 321 329 337 337 332 333 334 337 345 346 345 350 350 352 352 1 13 353 342 333 342 358 12 20 22 26 24 27 19 359 350 341 342 343 338 331 324 315 300 287 280 276 279 268 263 268 275 280 286 288 288 291 296 296 297 293 288 287 287 299 298 293 296 nan nan nan nan nan nan nan nan nan
267 277 282 289 298 304 306 305 302 300 300 306 313 326 335 343 339 335 330 331 341 339 339 343 342 338 340 342 346 345 340 336 336 346 3 11 17 18 21 17 10 0 348 340 334 334 336 333 330 312 322 317 309 299 277 270 271 271 270 273 284 292 291 289 287 290 297 298 295 288 283 283 286 302 297 302 309 311 nan nan nan nan nan nan nan
274 274 279 285 291 294 296 295 293 294 299 302 311 328 342 345 340 334 329 329 340 337 334 333 331 337 338 332 330 331 333 335 335 347 3 14 12 9 4 358 343 325 320 319 322 320 324 325 335 311 327 314 324 315 282 267 273 271 271 274 268 284 290 290 291 296 295 297 294 285 280 278 281 281 286 305 311 314 316 312 317 nan nan nan nan
271 273 279 288 290 293 294 287 289 294 298 302 313 328 343 345 341 337 330 326 331 330 321 319 323 331 323 324 326 333 336 337 338 346 359 3 4 353 337 326 304 298 300 301 304 303 307 315 310 315 297 296 nan nan 289 288 280 271 272 266 259 270 288 293 298 302 298 297 294 288 283 281 280 279 nan nan 304 nan nan 313 315 306 nan nan nan
273 275 278 283 286 290 289 287 289 292 297 306 315 328 335 337 336 345 329 325 322 321 320 322 321 319 326 331 332 340 339 335 335 337 346 349 349 340 329 304 299 294 291 286 286 290 291 292 294 300 302 304 294 293 nan 284 289 297 290 286 270 258 260 nan nan 302 300 294 293 288 283 280 278 278 278 nan nan nan 315 312 299 300 nan nan nan
266 269 272 277 282 287 290 291 291 291 294 304 313 325 332 334 336 335 330 325 324 323 318 316 326 333 335 330 317 328 331 326 326 326 331 333 336 332 326 314 303 301 295 286 286 286 289 292 291 298 304 307 305 304 295 290 286 288 286 298 283 279 280 269 246 257 286 296 291 286 281 278 274 279 nan nan nan nan 305 316 311 302 298 296 303
257 262 265 273 283 285 288 291 291 292 296 303 312 324 333 334 331 335 335 327 320 319 319 319 329 327 323 323 306 302 306 312 322 324 328 333 329 329 321 314 307 302 298 291 287 283 288 296 301 305 307 303 304 307 308 304 nan 287 280 280 274 273 276 273 264 253 242 257 278 285 280 272 272 278 nan nan nan nan nan 307 314 306 304 299 301
253 260 268 271 275 280 283 289 292 289 287 294 308 318 328 330 330 332 325 320 318 324 322 320 323 315 311 300 290 294 300 311 324 327 335 338 333 326 319 308 302 300 297 296 294 295 302 308 316 317 313 315 312 308 310 309 309 307 299 289 282 279 285 282 278 268 258 253 252 266 270 268 268 274 nan 278 279 280 nan 283 284 279 290 306 299
254 258 263 268 270 273 279 280 276 276 281 284 292 301 317 325 326 327 323 324 326 326 320 319 321 320 310 298 293 298 308 312 321 329 334 333 324 318 314 305 299 295 294 299 312 321 327 325 326 324 323 318 314 311 304 303 303 302 302 296 292 282 279 286 279 272 268 267 264 255 255 263 nan 268 269 274 278 278 281 284 281 279 275 292 304
252 259 260 259 261 269 273 269 272 279 282 288 296 305 315 321 324 324 326 324 326 326 324 321 318 315 306 304 305 308 310 310 315 317 323 316 312 309 309 308 302 294 298 321 336 337 331 325 319 318 321 318 310 306 304 298 293 287 287 290 286 285 285 280 277 268 267 268 265 262 262 265 nan 263 261 267 275 275 276 281 279 276 273 265 276
246 252 253 255 257 260 263 266 266 267 271 281 289 301 312 321 325 321 320 323 322 313 309 315 309 303 305 304 301 296 298 304 306 307 310 310 310 313 314 312 304 299 319 342 335 315 310 315 315 316 316 319 306 301 301 292 291 297 288 276 nan 275 nan 287 282 276 272 268 269 269 271 273 267 261 258 263 273 275 274 275 274 274 270 264 nan
246 248 249 251 251 254 257 261 260 260 261 265 272 283 300 305 311 314 312 317 316 314 318 311 296 299 303 303 301 304 304 300 301 303 306 308 311 309 307 296 296 313 335 332 314 312 319 329 326 320 315 312 313 304 306 309 298 284 282 277 nan nan nan 280 275 273 275 272 271 273 274 269 260 256 257 262 271 274 271 272 271 270 269 267 nan
245 244 245 249 253 255 256 257 259 258 258 260 265 271 278 282 292 302 306 303 310 308 305 303 294 287 278 285 295 300 300 300 298 299 301 302 304 305 299 302 319 319 316 317 318 320 319 321 320 320 316 316 308 306 310 312 306 289 286 294 nan nan 273 nan nan 277 285 284 284 281 273 263 249 247 252 263 270 271 271 271 271 268 267 269 268
246 246 246 247 252 254 256 259 260 261 261 260 261 267 273 279 284 290 298 301 305 301 293 291 289 289 286 280 280 280 283 288 290 291 292 292 295 297 299 303 313 312 312 319 318 318 317 317 315 315 314 313 311 305 302 308 313 309 304 287 281 nan nan nan nan nan 282 283 285 282 275 260 247 246 251 260 263 266 270 269 267 265 265 268 269
249 248 247 249 251 254 255 256 260 260 260 260 263 269 274 281 285 288 292 298 297 295 294 296 293 290 294 300 291 287 283 280 282 285 283 283 286 292 294 301 303 305 309 313 311 309 313 315 319 315 315 316 312 304 300 300 309 310 309 304 292 nan nan nan nan nan nan 283 283 284 272 255 249 248 248 257 263 260 262 266 264 265 263 264 268
250 251 250 250 251 254 257 259 260 262 263 265 266 272 276 280 283 289 294 297 299 297 298 297 296 296 294 290 287 282 287 286 286 287 285 287 290 291 295 303 308 309 311 312 315 319 317 318 317 321 322 317 309 311 310 304 300 302 302 302 299 289 278 276 280 nan nan nan 280 288 282 265 247 245 251 257 260 256 256 259 261 262 260 261 264
250 249 248 250 253 257 257 258 260 262 264 267 267 269 276 281 283 285 289 290 293 296 299 297 296 296 293 295 298 297 290 289 290 289 287 286 285 288 294 297 300 305 306 309 311 314 314 316 319 323 320 316 315 314 313 306 306 295 291 289 293 292 287 280 274 277 nan nan nan 276 277 270 253 243 252 262 261 258 258 255 256 259 258 259 258
247 247 248 250 250 251 255 258 258 260 262 263 267 268 271 275 278 282 284 288 293 296 299 296 292 292 290 290 288 289 296 299 289 283 284 287 289 299 305 303 309 310 307 308 313 318 321 321 319 318 317 314 313 313 314 312 307 303 292 291 290 293 288 289 285 276 nan nan nan nan 279 272 256 246 252 257 251 249 255 255 255 258 260 258 255
246 245 243 247 250 252 253 255 256 259 261 261 265 267 268 271 273 274 275 280 285 289 293 289 289 289 289 290 291 290 286 288 293 295 296 296 299 304 310 311 312 311 309 312 316 319 319 317 317 317 317 319 317 318 323 319 313 307 302 295 292 287 284 283 282 278 270 nan nan nan 277 282 267 251 251 251 251 248 250 254 256 257 259 257 252
246 247 246 245 247 248 251 254 256 258 260 261 261 262 266 268 271 273 274 275 277 280 281 282 284 285 286 288 289 290 289 288 288 287 287 286 287 291 298 305 306 307 308 309 315 318 317 316 315 314 317 321 320 323 325 326 319 311 307 301 295 290 289 287 282 277 276 274 nan nan nan 275 277 265 255 249 246 251 255 257 258 257 259 257 249